User: anonymous   Login
Location: Natural Bridges National Monument
(37.6093°N, 109.9767°W)
Time: 16:34:18
(UTC-06:00)
Language:

Cosmos 1727 Rocket - Orbit

View from above orbital plane
View from above orbital plane
View from above satellite
View from above satellite

Ground track
Ground track

The orbit data is extracted from the following two-line orbital elements,

1 16511U 86008B   17085.92663646 -.00000053 +00000-0 -70126-4 0  9999
2 16511 082.9408 280.9201 0024804 149.9668 317.6630 13.75810657564701
Epoch (UTC): 26 March 2017 22:14:21
Eccentricity: 0.0024804
inclination: 82.9408°
perigee height: 960 km
apogee height: 997 km
right ascension of ascending node: 280.9201°
argument of perigee: 149.9668°
revolutions per day: 13.75810657
mean anomaly at epoch: 317.6630°
orbit number at epoch: 56470

The dashed part of the orbit path shows where the satellite is in the earth's shadow,  

DLR